This is the latest recevied weather packets stored in our database for station/object NK7E-2. If no packets are shown the sender has not sent any weather packets the latest 10 day(s).
| Time | Temp. | Humidity | Pressure | Rain* | Wind** | Luminosity | Snow |
|---|---|---|---|---|---|---|---|
| 1777113317 | 18.89° C | 17% | 1018.6 hPa | 0 mm | - | - | - |
| 1777112717 | 18.89° C | 17% | 1018.5 hPa | 0 mm | - | - | - |
| 1777112117 | 18.89° C | 19% | 1018.6 hPa | 0 mm | - | - | - |
| 1777111517 | 18.89° C | 19% | 1018.3 hPa | 0 mm | - | - | - |
| 1777110917 | 19.44° C | 18% | 1018.4 hPa | 0 mm | - | - | - |
| 1777110317 | 20° C | 18% | 1018.3 hPa | 0 mm | - | - | - |
| 1777109717 | 20° C | 18% | 1018.4 hPa | 0 mm | - | - | - |
| 1777109117 | 19.44° C | 19% | 1018 hPa | 0 mm | - | - | - |
| 1777108517 | 20° C | 20% | 1017.9 hPa | 0 mm | - | - | - |
| 1777107917 | 19.44° C | 22% | 1018.2 hPa | 0 mm | - | - | - |
| 1777107317 | 20° C | 23% | 1018.3 hPa | 0 mm | - | - | - |
| 1777106717 | 20° C | 24% | 1018.5 hPa | 0 mm | - | - | - |
| 1777106116 | 20° C | 27% | 1018.6 hPa | 0 mm | - | - | - |
| 1777105516 | 19.44° C | 30% | 1018.6 hPa | 0 mm | - | - | - |
| 1777104916 | 19.44° C | 30% | 1018.7 hPa | 0 mm | - | - | - |
| 1777104316 | 19.44° C | 30% | 1018.9 hPa | 0 mm | - | - | - |
| 1777103717 | 19.44° C | 29% | 1018.9 hPa | 0 mm | - | - | - |
| 1777103116 | 19.44° C | 29% | 1019.1 hPa | 0 mm | - | - | - |
| 1777102516 | 18.89° C | 30% | 1018.7 hPa | 0 mm | - | - | - |
| 1777101916 | 19.44° C | 29% | 1018.6 hPa | 0 mm | - | - | - |
| 1777101316 | 18.89° C | 30% | 1018.5 hPa | 0 mm | - | - | - |
| 1777100716 | 18.33° C | 29% | 1018.5 hPa | 0 mm | - | - | - |
| 1777100117 | 18.89° C | 28% | 1018.4 hPa | 0 mm | - | - | - |
| 1777099517 | 19.44° C | 27% | 1018.6 hPa | 0 mm | - | - | - |
| 1777098917 | 20° C | 26% | 1018.3 hPa | 0 mm | - | - | - |
* Rain latest hour (hover to see other rain measurements)
** Current wind speed in m/s (hover to see current wind gust speed)